Regional Weather Roundup
Issued by NWS

Home | Current Version | Previous Version | Graphics & Text | Print | Product List | Glossary On
Versions: 1 2 3 4 5 6 7 8 9 10 11 12 13 14 15 16 17 18 19 20 21 22 23 24 25 26 27 28 29 30 31 32 33 34 35 36 37 38 39 40 41 42 43 44 45 46 47 48 49 50
000
ASUS45 KBOU 260607
RWRCO

WEATHER ROUNDUP FOR COLORADO
NATIONAL WEATHER SERVICE DENVER/BOULDER CO
1100 PM MST SAT FEB 25 2017

NOTE: "FAIR" INDICATES FEW OR NO CLOUDS BELOW 12000 FEET WITH NO
SIGNIFICANT WEATHER AND/OR OBSTRUCTIONS TO VISIBILITY.

COZ001>005-013-030-031-260700-
...NORTHWEST COLORADO...

CITY           SKY/WX    TMP DP  RH WIND       PRES   REMARKS
CRAIG          CLOUDY    17  11  77 CALM      29.90R
HAYDEN         CLOUDY    16  10  79 W6        29.86F WCI   7
MEEKER         FAIR      10   7  87 NE3       29.90R
MOUNT WERNER   NOT AVBL
STEAMBOAT SPGS CLOUDY    15  10  77 CALM      29.86S
WALDEN         NOT AVBL
$$

COZ006>008-011-260700-
...WEST CENTRAL VALLEYS...

CITY           SKY/WX    TMP DP  RH WIND       PRES   REMARKS
GRAND JUNCTION MOCLDY    30  13  49 CALM      29.92S
MONTROSE       CLOUDY    28  12  51 CALM      29.95R
EAGLE          FAIR      21   9  59 SW9       29.89R WCI  11
RIFLE          FAIR      25  12  58 SW8       29.92R WCI  16
DELTA          FAIR      31  15  51 W5        29.93S WCI  26
NUCLA          CLOUDY    30  10  43 NW7       29.95R WCI  23
$$

COZ017>023-064>068-260700-
...SOUTHWEST COLORADO...

CITY           SKY/WX    TMP DP  RH WIND       PRES   REMARKS
DURANGO        MOCLDY    28   8  43 SW6       29.85F WCI  22
CORTEZ         FAIR      27  18  69 E3        29.89R
PAGOSA SPRINGS CLOUDY    27   5  39 CALM      29.85S
TELLURIDE      LGT SNOW  17  11  75 NW3       29.86R
WOLF CREEK PAS LGT SNOW   5   3  92 SW15G21   29.79S VSB 3/4 WCI -13
$$

COZ009-010-012-014-032>034-037-058>063-260700-
...CENTRAL COLORADO...

CITY           SKY/WX    TMP DP  RH WIND       PRES   REMARKS
ASPEN          CLOUDY    16  11  80 CALM      29.82R
BUENA VISTA    CLOUDY    20   5  52 W3        29.78S
COPPER MTN     CLOUDY     5  -4  66 MISG      29.64S
BERTHOUD PASS  LGT SNOW  -6 -15  65 NW38      29.55R VSB 1   WCI -36
COTTONWOOD PAS CLOUDY    18   1  49 W9        29.73R WCI   6
GUNNISON       FAIR      17  13  84 CALM      29.86R
KREMMLING      CLOUDY    19  14  79 W3        29.85S
LEADVILLE      LGT SNOW   7   2  80 NW7       29.72S WCI  -5
MONARCH PASS   LGT SNOW   3  -2  78 W36G44    29.76S VSB 3/4 WCI -23
SALIDA         CLOUDY    23  10  57 SW10      29.88S WCI  13
SUNLIGHT       NOT AVBL
WILKERSON PASS CLOUDY     3   0  85 SW12G23   29.67F WCI -13
$$

COZ069>075-260700-
...SAN LUIS VALLEY/SANGRE DE CRISTO MOUNTAINS...

CITY           SKY/WX    TMP DP  RH WIND       PRES   REMARKS
ALAMOSA        CLOUDY    25  13  60 SW14      29.80F WCI  13
LA VETA PASS   CLOUDY    16   5  62 SW14G38   29.73S WCI   1
SAGUACHE       CLOUDY    21   9  58 NW15G21   29.83R WCI   8
$$

COZ035-036-038>040-260700-
...NORTHERN COLORADO FRONT RANGE...

CITY           SKY/WX    TMP DP  RH WIND       PRES   REMARKS
DENVER INTL AP FAIR      22   6  50 S9        29.77F WCI  12
DMNS CITY PARK   N/A     28   2  33 SW9       29.77F WCI  20
AURORA         PTCLDY    17   5  57 S8        29.78S WCI   7
FRONT RANGE AP FAIR      21   9  58 S10       29.78F WCI  10
ERIE MUNI ARPT FAIR      24   8  50 E5        29.77F WCI  18
BOULDER MUN AP FAIR      28   7  40 NE3       29.76S
CENTENNIAL     FAIR      18   6  59 E8        29.77S WCI   8
BROOMFIELD     FAIR      30   1  29 SW17G23   29.75F WCI  18
FORT COLLINS   FAIR      21  11  65 E13       29.78S WCI   9
LONGMONT       FAIR      31   5  32 W10       29.77F WCI  22
$$

COZ041-046-047-076>085-087-088-260700-
...PIKES PEAK/PALMER DIVIDE AND SOUTHERN FOOTHILLS...

CITY           SKY/WX    TMP DP  RH WIND       PRES   REMARKS
COLO. SPRINGS  FAIR      24  -2  32 SW16      29.78F WCI  11
A. F. ACADEMY  FAIR      17   1  48 VRB5      29.75F WCI  10
SCHRIEVER AFB  FAIR      19  -1  40 SW14      29.78F WCI   6
ELLICOTT       NOT AVBL
FALCON         FAIR      20  -2  39 W5        29.78R WCI  13
FORT CARSON    FAIR      25   0  33 W14       29.78F WCI  13
LIMON          FAIR       8   4  83 N10       29.81S WCI  -6
MONUMENT HILL  FAIR      18   3  53 SW9       29.76F WCI   6
TRINIDAD       FAIR      26   1  34 E3        29.81S
$$

COZ042>045-048>051-090-091-260700-
...NORTHEAST COLORADO...

CITY           SKY/WX    TMP DP  RH WIND       PRES   REMARKS
GREELEY ARPT   FAIR      19  12  74 S5        29.82R WCI  12
AKRON          FAIR      21  12  68 E7        29.82S WCI  12
BURLINGTON     FAIR      20   6  55 E7        29.84S WCI  11
WRAY           NOT AVBL
STERLING       FAIR      19  16  86 W6        29.83R WCI  11
HOLYOKE        FAIR      25  18  74 SW6       29.85R WCI  18
FORT MORGAN    FAIR      21  15  77 NE5       29.83R WCI  15
$$

COZ086-089-092>099-260700-
...SOUTHEAST COLORADO...

CITY           SKY/WX    TMP DP  RH WIND       PRES   REMARKS
PUEBLO         FAIR      35   3  26 NW15      29.80F WCI  25
LA JUNTA       FAIR      28   3  34 N5        29.84R WCI  23
LAMAR          FAIR      24   5  44 E8        29.82S WCI  15
SPRINGFIELD      N/A     26   2  35 NW3       29.80S
$$



USA.gov is the U.S. government's official web portal to all federal, state and local government web resources and services.